FW5156 Weather Reports


Display with metric or nautical units.
time (UTC)temp
F
wind
direction
speed
MPH
gust
MPH
rain 1hr
in
rain 24hr
in
rain mn
in
humidity
%
barometer
mb
20260504222017 74 203 4.0 12.0 0.00 0.04 0.04 45 1005.6
20260504221017 75 225 5.0 15.0 0.00 0.04 0.04 45 1005.6
20260504220017 75 203 4.0 10.0 0.00 0.04 0.04 45 1005.5
20260504215017 75 225 6.0 14.0 0.00 0.04 0.04 45 1005.6
20260504214017 74 225 3.0 8.0 0.00 0.04 0.04 49 1005.5
20260504213017 73 225 5.0 17.0 0.00 0.04 0.04 50 1005.6
20260504212017 72 225 5.0 14.0 0.00 0.04 0.04 53 1005.8
20260504211017 71 293 3.0 11.0 0.00 0.04 0.04 65 1006.0
20260504210037 71 0.0 5.0 0.00 0.04 0.04 67 1006.3
20260504205017 72 0.0 1.0 0.00 0.04 0.04 65 1006.3
20260504204037 71 225 1.0 5.0 0.00 0.04 0.04 66 1006.5
20260504203017 70 293 1.0 12.0 0.00 0.04 0.04 68 1006.3
20260504202017 68 0.0 0.0 0.00 0.04 0.04 76 1006.3
20260504201037 66 0.0 0.0 0.00 0.04 0.04 80 1006.6
20260504200017 66 0.0 0.0 0.00 0.04 0.04 77 1006.8
20260504195017 67 0.0 0.0 0.00 0.04 0.04 74 1007.1
20260504194037 67 0.0 0.0 0.00 0.04 0.04 73 1007.9
20260504193017 67 0.0 3.0 0.00 0.04 0.04 77 1007.7
20260504192017 66 225 2.0 7.0 0.01 0.04 0.04 82 1007.4
20260504191017 64 248 2.0 8.0 0.02 0.04 0.04 85 1007.4
20260504190017 62 0.0 1.0 0.03 0.04 0.04 92 1007.2
20260504185017 60 0.0 0.0 0.04 0.04 0.04 90 1007.6
20260504184017 59 0.0 0.0 0.04 0.04 0.04 89 1007.8
20260504183017 60 0.0 2.0 0.04 0.04 0.04 85 1007.2
20260504182017 60 270 2.0 7.0 0.03 0.03 0.03 83 1008.2
20260504181017 61 270 5.0 22.0 0.02 0.02 0.02 81 1008.8
20260504180017 63 225 5.0 16.0 0.01 0.01 0.01 77 1008.7
20260504175017 64 270 4.0 16.0 0.00 0.00 0.00 74 1008.1
20260504174017 64 270 3.0 11.0 0.00 0.00 0.00 71 1008.0
20260504173037 64 203 3.0 10.0 0.00 0.00 0.00 73 1007.9
20260504172037 63 270 1.0 6.0 0.00 0.00 0.00 75 1007.5
20260504171017 63 225 1.0 6.0 0.00 0.00 0.00 75 1007.5
20260504151018 64 203 3.0 9.0 0.00 0.00 0.00 71 1008.6
20260504141017 63 225 2.0 8.0 0.00 0.00 0.00 70 1008.4
20260504081017 53 225 1.0 5.0 0.00 0.00 0.00 71 1009.8
20260504050017 54 0.0 3.0 0.00 0.00 0.00 68 1011.2
20260504045017 54 0.0 2.0 0.00 0.00 0.00 68 1011.4
20260504044017 54 225 1.0 6.0 0.00 0.00 0.00 68 1011.5
20260504043017 54 0.0 4.0 0.00 0.00 0.00 68 1011.4
20260504042017 54 0.0 2.0 0.00 0.00 0.00 69 1011.4
20260504041017 53 0.0 3.0 0.00 0.00 0.00 69 1011.5
20260504040017 53 0.0 4.0 0.00 0.00 0.00 71 1011.6
20260504035017 54 0.0 0.0 0.00 0.00 0.00 69 1011.6
20260504034017 54 0.0 5.0 0.00 0.00 0.00 69 1011.9
20260504033016 54 0.0 0.0 0.00 0.00 0.00 68 1012.0
20260504031037 55 0.0 0.0 0.00 0.00 0.00 66 1012.2
20260504030037 55 0.0 0.0 0.00 0.00 0.00 66 1012.3
20260504025017 55 0.0 3.0 0.00 0.00 0.00 66 1012.2
20260504024017 55 0.0 0.0 0.00 0.00 0.00 66 1012.1
20260504023017 55 0.0 2.0 0.00 0.00 0.00 65 1012.1
20260504022017 55 0.0 1.0 0.00 0.00 0.00 65 1011.9
20260504021017 55 0.0 3.0 0.00 0.00 0.00 64 1011.8
20260504020017 56 0.0 3.0 0.00 0.00 0.00 63 1011.8
20260504015018 56 0.0 4.0 0.00 0.00 0.00 62 1011.7
20260504014017 57 0.0 5.0 0.00 0.00 0.00 61 1011.7
20260504013017 57 248 2.0 7.0 0.00 0.00 0.00 59 1011.7
20260504012017 57 203 1.0 7.0 0.00 0.00 0.00 61 1011.5
20260504011038 57 225 1.0 6.0 0.00 0.00 0.00 60 1011.6
20260504010017 57 248 2.0 7.0 0.00 0.00 0.00 59 1011.6
20260504005017 57 248 2.0 6.0 0.00 0.00 0.00 60 1011.5
20260504004017 58 225 3.0 10.0 0.00 0.00 0.00 60 1011.5
20260504003017 58 225 1.0 6.0 0.00 0.00 0.00 60 1011.4
20260504002038 57 225 3.0 8.0 0.00 0.00 0.00 60 1011.4
20260504001017 57 0.0 6.0 0.00 0.00 0.00 63 1011.5
20260504000017 57 203 1.0 9.0 0.00 0.00 0.00 64 1011.4
20260503235017 57 293 2.0 14.0 0.00 0.00 0.00 63 1011.2
20260503234017 57 225 2.0 7.0 0.00 0.00 0.00 65 1011.4
20260503233017 57 225 1.0 7.0 0.00 0.00 0.00 65 1011.6
20260503232037 57 225 2.0 7.0 0.00 0.00 0.00 63 1012.0
20260503231037 57 225 1.0 6.0 0.00 0.00 0.00 63 1012.0
20260503230017 57 225 2.0 8.0 0.00 0.00 0.00 62 1011.6
20260503225017 58 225 3.0 11.0 0.00 0.00 0.00 60 1011.3
20260503224017 58 225 2.0 8.0 0.00 0.00 0.00 60 1011.8
20260503223018 58 203 2.0 10.0 0.00 0.00 0.00 59 1012.2